User: anonymous   Login
Location: Unspecified
(0.0000°N, 0.0000°E)
Time: 06:51:03
(UTC+00:00)
Language:

TATIANA 2 - Orbit

View from above orbital plane
View from above orbital plane
View from above satellite
View from above satellite

Ground track
Ground track

The orbit data is extracted from the following two-line orbital elements,

1 35868U 09049D   17087.96012718 +.00000029 +00000-0 +31367-4 0  9994
2 35868 098.4239 114.6909 0004373 019.3138 340.8206 14.22766703390743
Epoch (UTC): 28 March 2017 23:02:34
Eccentricity: 0.0004373
inclination: 98.4239°
perigee height: 813 km
apogee height: 819 km
right ascension of ascending node: 114.6909°
argument of perigee: 19.3138°
revolutions per day: 14.22766703
mean anomaly at epoch: 340.8206°
orbit number at epoch: 39074

The dashed part of the orbit path shows where the satellite is in the earth's shadow,  

DLR